TimePST,TemperatureF,Dew PointF,Humidity,Sea Level PressureIn,VisibilityMPH,Wind Direction,Wind SpeedMPH,Gust SpeedMPH,PrecipitationIn,Events,Conditions,WindDirDegrees,DateUTC
12:33 AM,53.6,50.0,88,30.09,5.0,Calm,Calm,-,N/A,,Overcast,0,2012-11-27 08:33:00
12:56 AM,53.1,50.0,89,30.09,5.0,Calm,Calm,-,N/A,,Mostly Cloudy,0,2012-11-27 08:56:00
1:15 AM,51.8,50.0,94,30.09,5.0,Calm,Calm,-,N/A,,Mostly Cloudy,0,2012-11-27 09:15:00
1:56 AM,52.0,48.9,89,30.09,9.0,Calm,Calm,-,N/A,,Overcast,0,2012-11-27 09:56:00
2:24 AM,53.6,48.2,82,30.09,8.0,Calm,Calm,-,N/A,,Overcast,0,2012-11-27 10:24:00
2:48 AM,53.6,48.2,82,30.09,8.0,Calm,Calm,-,N/A,,Overcast,0,2012-11-27 10:48:00
2:56 AM,53.1,48.9,86,30.10,8.0,Calm,Calm,-,N/A,,Overcast,0,2012-11-27 10:56:00
3:34 AM,53.6,48.2,82,30.10,8.0,Calm,Calm,-,N/A,,Overcast,0,2012-11-27 11:34:00
3:56 AM,53.1,48.9,86,30.11,9.0,SE,3.5,-,N/A,,Overcast,130,2012-11-27 11:56:00
4:38 AM,51.8,48.2,88,30.10,8.0,ESE,4.6,-,N/A,,Overcast,120,2012-11-27 12:38:00
4:53 AM,51.8,48.2,88,30.10,8.0,SE,5.8,-,N/A,,Scattered Clouds,130,2012-11-27 12:53:00
4:56 AM,51.1,48.0,89,30.11,8.0,SE,5.8,-,N/A,,Scattered Clouds,130,2012-11-27 12:56:00
5:23 AM,50.0,46.4,87,30.11,5.0,SSE,5.8,-,N/A,,Mostly Cloudy,150,2012-11-27 13:23:00
5:32 AM,50.0,48.2,94,30.11,3.0,SSE,4.6,-,N/A,,Mostly Cloudy,160,2012-11-27 13:32:00
5:56 AM,50.0,48.0,93,30.13,4.0,South,4.6,-,N/A,,Mostly Cloudy,170,2012-11-27 13:56:00
6:05 AM,50.0,48.2,94,30.12,5.0,South,4.6,-,N/A,,Mostly Cloudy,170,2012-11-27 14:05:00
6:56 AM,51.1,48.0,89,30.12,6.0,Calm,Calm,-,N/A,,Partly Cloudy,0,2012-11-27 14:56:00
7:56 AM,52.0,48.9,89,30.12,6.0,Calm,Calm,-,N/A,,Clear,0,2012-11-27 15:56:00
8:56 AM,55.0,48.9,80,30.13,9.0,ESE,5.8,-,N/A,,Clear,120,2012-11-27 16:56:00
9:56 AM,57.9,48.9,72,30.12,10.0,SE,6.9,-,0.01,,Clear,130,2012-11-27 17:56:00
10:56 AM,59.0,48.9,69,30.12,10.0,ESE,3.5,-,N/A,,Clear,120,2012-11-27 18:56:00
11:56 AM,63.0,48.0,58,30.10,10.0,South,10.4,17.3,N/A,,Clear,170,2012-11-27 19:56:00
12:56 PM,63.0,48.9,60,30.09,10.0,Calm,Calm,-,N/A,,Mostly Cloudy,0,2012-11-27 20:56:00
1:56 PM,63.0,48.0,58,30.06,10.0,South,6.9,-,N/A,,Scattered Clouds,170,2012-11-27 21:56:00
2:56 PM,62.1,46.9,58,30.04,10.0,South,6.9,-,N/A,,Clear,180,2012-11-27 22:56:00
3:56 PM,62.1,46.9,58,30.03,10.0,South,6.9,-,N/A,,Clear,180,2012-11-27 23:56:00
4:56 PM,60.1,46.9,62,30.03,10.0,Calm,Calm,-,N/A,,Clear,0,2012-11-28 00:56:00
5:56 PM,59.0,48.0,67,30.03,10.0,SSE,3.5,-,N/A,,Clear,150,2012-11-28 01:56:00
6:56 PM,59.0,48.0,67,30.03,10.0,SSE,6.9,-,N/A,,Partly Cloudy,160,2012-11-28 02:56:00
7:56 PM,57.0,48.9,74,30.05,10.0,ESE,6.9,-,N/A,,Clear,110,2012-11-28 03:56:00
8:56 PM,57.9,48.9,72,30.03,10.0,ESE,6.9,-,N/A,,Clear,120,2012-11-28 04:56:00
9:56 PM,57.9,48.0,70,30.04,10.0,East,12.7,-,N/A,,Partly Cloudy,100,2012-11-28 05:56:00
10:56 PM,57.0,46.9,69,30.02,10.0,East,6.9,-,N/A,,Clear,100,2012-11-28 06:56:00
11:56 PM,55.0,46.9,74,30.02,10.0,East,5.8,-,N/A,,Scattered Clouds,100,2012-11-28 07:56:00